Location: Rancho Del Sol Observatory
(38.7214°N, 120.6350°W)
Time: 22:42:15
(UTC-08:00)

A-11 Canister half - Pass Details

Date: 03 February 2020
Orbit: 1517 x 1683 km, 47.2° (Epoch: 17 February)

Event Time Altitude Azimuth Distance (km) Brightness Sun altitude
Rises 20:45:13 0° 234° (SW) 4,828 12.1 -39.0°
Reaches altitude 10° 20:48:22 10° 233° (SW) 3,821 11.4 -39.6°
Enters shadow 20:55:40 57° 228° (SW) 1,807 9.3 -41.0°
Maximum altitude 20:58:05 85° 147° (SSE) 1,576 - -41.4°
Drops below altitude 10° 21:07:29 10° 60° (ENE) 3,709 - -43.2°
Sets 21:10:30 0° 60° (ENE) 4,681 - -43.8°
